This is the latest recevied weather packets stored in our database for station/object MM1PTT-13. If no packets are shown the sender has not sent any weather packets the latest 10 day(s).
| Time | Temp. | Humidity | Pressure | Rain* | Wind** | Luminosity | Snow |
|---|---|---|---|---|---|---|---|
| 1777624543 | 10° C | 79% | 990.2 hPa | 0 mm | - | 138 W/m² | - |
| 1777624243 | 10° C | 78% | 990.5 hPa | 0 mm | - | 120 W/m² | - |
| 1777623942 | 9.44° C | 81% | 990.5 hPa | 0 mm | - | 104 W/m² | - |
| 1777623643 | 10° C | 81% | 990.5 hPa | 0 mm | - | 127 W/m² | - |
| 1777623343 | 10° C | 77% | 990.5 hPa | 0 mm | - | 155 W/m² | - |
| 1777623042 | 10° C | 77% | 990.5 hPa | 0 mm | - | 154 W/m² | - |
| 1777622742 | 10° C | 78% | 990.5 hPa | 0 mm | - | 169 W/m² | - |
| 1777622443 | 10° C | 79% | 990.5 hPa | 0 mm | - | 217 W/m² | - |
| 1777622143 | 9.44° C | 78% | 990.5 hPa | 0 mm | - | 215 W/m² | - |
| 1777621842 | 9.44° C | 78% | 990.5 hPa | 0 mm | - | 163 W/m² | - |
| 1777621543 | 9.44° C | 78% | 990.5 hPa | 0 mm | - | 120 W/m² | - |
| 1777621243 | 9.44° C | 78% | 990.5 hPa | 0 mm | - | 100 W/m² | - |
| 1777620943 | 9.44° C | 80% | 990.5 hPa | 0 mm | - | 88 W/m² | - |
| 1777620643 | 9.44° C | 79% | 990.5 hPa | 0 mm | - | 105 W/m² | - |
| 1777620343 | 8.89° C | 80% | 990.5 hPa | 0 mm | - | 86 W/m² | - |
| 1777620043 | 8.89° C | 80% | 990.9 hPa | 0 mm | - | 115 W/m² | - |
| 1777619743 | 8.89° C | 82% | 990.5 hPa | 0 mm | - | 147 W/m² | - |
| 1777619442 | 8.89° C | 82% | 990.5 hPa | 0 mm | - | 155 W/m² | - |
| 1777619143 | 8.33° C | 83% | 990.5 hPa | 0 mm | - | 121 W/m² | - |
| 1777618843 | 8.33° C | 84% | 990.9 hPa | 0 mm | - | 102 W/m² | - |
| 1777618543 | 8.33° C | 84% | 990.9 hPa | 0 mm | - | 104 W/m² | - |
| 1777618242 | 7.78° C | 85% | 990.5 hPa | 0 mm | - | 88 W/m² | - |
| 1777617942 | 7.78° C | 85% | 990.5 hPa | 0 mm | - | 55 W/m² | - |
| 1777617643 | 7.22° C | 86% | 990.5 hPa | 0 mm | - | 53 W/m² | - |
| 1777617342 | 7.22° C | 86% | 990.5 hPa | 0 mm | - | 54 W/m² | - |
* Rain latest hour (hover to see other rain measurements)
** Current wind speed in m/s (hover to see current wind gust speed)